When you browse on this site, cookies collect data to enhance your experience and personalize the content and advertising you see.
Visit our Privacy Policy to learn more. By continuing to use the site, you agree to this use of cookies and data.
EN

Hourly Weather Madras

Today, 12 August, Wednesday

Time Temperature Precipitation Wind Pressure Humidity
00:00 +30°C° 0.5 mm 5 mps 754 mmHg 74%
01:00 +30°C° 0.5 mm 5 mps 753 mmHg 74%
02:00 +30°C° 0.5 mm 5 mps 752 mmHg 73%
03:00 +30°C° 0 mm 5 mps 753 mmHg 73%
04:00 +29°C° 0 mm 5 mps 753 mmHg 74%
05:00 +29°C° 0 mm 3 mps 753 mmHg 78%
06:00 +30°C° 0.1 mm 4 mps 754 mmHg 75%
07:00 +30°C° 0.1 mm 4 mps 754 mmHg 73%
08:00 +32°C° 0.1 mm 4 mps 754 mmHg 70%
09:00 +33°C° 0 mm 4 mps 755 mmHg 66%
10:00 +34°C° 0 mm 4 mps 755 mmHg 62%
11:00 +35°C° 0 mm 4 mps 755 mmHg 57%
12:00 +35°C° 0 mm 4 mps 754 mmHg 55%
13:00 +36°C° 0 mm 4 mps 753 mmHg 54%
14:00 +36°C° 0 mm 4 mps 752 mmHg 52%
15:00 +35°C° 0.3 mm 4 mps 752 mmHg 56%
16:00 +35°C° 0.3 mm 3 mps 753 mmHg 59%
17:00 +33°C° 0 mm 1 mps 753 mmHg 63%
18:00 +33°C° 0.1 mm 1 mps 753 mmHg 64%
19:00 +32°C° 0.1 mm 1 mps 753 mmHg 66%
20:00 +32°C° 0.1 mm 1 mps 754 mmHg 67%
21:00 +31°C° 0.5 mm 2 mps 754 mmHg 69%
22:00 +31°C° 0.5 mm 2 mps 755 mmHg 72%
23:00 +30°C° 0.5 mm 2 mps 755 mmHg 74%

Tomorrow, 13 August, Thursday

Time Temperature Precipitation Wind Pressure Humidity
00:00 +30°C° 0.6 mm 3 mps 754 mmHg 74%
01:00 +30°C° 0.6 mm 3 mps 754 mmHg 75%
02:00 +29°C° 0.6 mm 4 mps 753 mmHg 76%
03:00 +29°C° 0.1 mm 4 mps 753 mmHg 76%
04:00 +29°C° 0.1 mm 3 mps 753 mmHg 77%
05:00 +29°C° 0.1 mm 3 mps 753 mmHg 77%
06:00 +29°C° 0 mm 3 mps 753 mmHg 74%
07:00 +30°C° 0 mm 3 mps 754 mmHg 70%
08:00 +32°C° 0 mm 4 mps 754 mmHg 67%
09:00 +33°C° 0 mm 4 mps 754 mmHg 64%
10:00 +34°C° 0 mm 5 mps 754 mmHg 60%
11:00 +34°C° 0 mm 6 mps 754 mmHg 57%
12:00 +35°C° 0 mm 5 mps 753 mmHg 56%
13:00 +35°C° 0 mm 5 mps 752 mmHg 56%
14:00 +35°C° 0 mm 5 mps 751 mmHg 55%
15:00 +34°C° 0 mm 5 mps 751 mmHg 58%
16:00 +34°C° 0 mm 4 mps 751 mmHg 61%
17:00 +33°C° 0 mm 4 mps 751 mmHg 64%
18:00 +33°C° 0 mm 4 mps 751 mmHg 65%
19:00 +32°C° 0 mm 4 mps 752 mmHg 65%
20:00 +31°C° 0 mm 3 mps 753 mmHg 66%
21:00 +31°C° 0.1 mm 3 mps 753 mmHg 67%
22:00 +30°C° 0.1 mm 3 mps 753 mmHg 67%
23:00 +30°C° 0.1 mm 3 mps 753 mmHg 68%

Day after tomorrow, 14 August, Friday

Time Temperature Precipitation Wind Pressure Humidity
00:00 +30°C° 0.3 mm 3 mps 753 mmHg 69%
01:00 +30°C° 0.3 mm 3 mps 752 mmHg 69%
02:00 +30°C° 0.3 mm 3 mps 752 mmHg 69%
03:00 +29°C° 0.1 mm 3 mps 752 mmHg 70%
04:00 +29°C° 0.1 mm 3 mps 752 mmHg 71%
05:00 +29°C° 0.1 mm 3 mps 752 mmHg 72%
06:00 +30°C° 0 mm 3 mps 753 mmHg 69%
07:00 +30°C° 0 mm 3 mps 753 mmHg 66%
08:00 +31°C° 0 mm 3 mps 754 mmHg 64%
09:00 +33°C° 0 mm 4 mps 754 mmHg 60%
10:00 +34°C° 0 mm 4 mps 754 mmHg 57%
11:00 +35°C° 0 mm 4 mps 753 mmHg 54%
12:00 +35°C° 0 mm 4 mps 753 mmHg 52%
13:00 +36°C° 0 mm 4 mps 752 mmHg 49%
14:00 +36°C° 0 mm 4 mps 751 mmHg 47%
15:00 +36°C° 0 mm 4 mps 751 mmHg 50%
16:00 +36°C° 0 mm 4 mps 751 mmHg 52%
17:00 +35°C° 0 mm 4 mps 751 mmHg 55%
18:00 +34°C° 0.1 mm 4 mps 751 mmHg 58%
19:00 +33°C° 0.1 mm 4 mps 752 mmHg 61%
20:00 +32°C° 0.1 mm 5 mps 752 mmHg 64%
21:00 +32°C° 0.2 mm 4 mps 752 mmHg 66%
22:00 +32°C° 0.2 mm 4 mps 753 mmHg 69%
23:00 +30°C° 0.2 mm 4 mps 753 mmHg 72%

15 August, Saturday

Time Temperature Precipitation Wind Pressure Humidity
00:00 +30°C° 0.4 mm 4 mps 752 mmHg 73%
01:00 +30°C° 0.4 mm 4 mps 752 mmHg 74%
02:00 +30°C° 0.4 mm 4 mps 751 mmHg 74%
03:00 +29°C° 0.1 mm 4 mps 751 mmHg 73%
04:00 +29°C° 0.1 mm 4 mps 752 mmHg 72%
05:00 +29°C° 0.1 mm 4 mps 752 mmHg 70%
06:00 +29°C° 0 mm 5 mps 752 mmHg 67%
07:00 +30°C° 0 mm 5 mps 753 mmHg 63%
08:00 +32°C° 0 mm 6 mps 753 mmHg 59%
09:00 +33°C° 0 mm 6 mps 753 mmHg 56%
10:00 +34°C° 0 mm 6 mps 753 mmHg 52%
11:00 +36°C° 0 mm 6 mps 753 mmHg 49%
12:00 +36°C° 0 mm 6 mps 752 mmHg 47%
13:00 +37°C° 0 mm 5 mps 752 mmHg 45%
14:00 +37°C° 0 mm 5 mps 751 mmHg 43%
15:00 +37°C° 0 mm 5 mps 751 mmHg 46%
16:00 +36°C° 0 mm 5 mps 751 mmHg 48%
17:00 +36°C° 0 mm 5 mps 751 mmHg 50%
18:00 +35°C° 0 mm 5 mps 751 mmHg 53%
19:00 +34°C° 0 mm 5 mps 752 mmHg 56%
20:00 +33°C° 0 mm 5 mps 753 mmHg 58%
21:00 +32°C° 0.3 mm 5 mps 753 mmHg 63%
22:00 +32°C° 0.3 mm 5 mps 753 mmHg 67%
23:00 +30°C° 0.3 mm 5 mps 753 mmHg 71%

16 August, Sunday

Time Temperature Precipitation Wind Pressure Humidity
00:00 +30°C° 0.4 mm 5 mps 753 mmHg 71%
01:00 +30°C° 0.4 mm 5 mps 752 mmHg 71%
02:00 +30°C° 0.4 mm 5 mps 752 mmHg 71%
03:00 +29°C° 0.1 mm 5 mps 752 mmHg 70%
04:00 +29°C° 0.1 mm 5 mps 752 mmHg 69%
05:00 +29°C° 0.1 mm 5 mps 752 mmHg 68%
06:00 +30°C° 0 mm 5 mps 753 mmHg 65%
07:00 +30°C° 0 mm 5 mps 753 mmHg 62%
08:00 +32°C° 0 mm 5 mps 754 mmHg 59%
09:00 +34°C° 0 mm 4 mps 754 mmHg 55%
10:00 +35°C° 0 mm 4 mps 754 mmHg 51%
11:00 +36°C° 0 mm 4 mps 754 mmHg 47%
12:00 +36°C° 0 mm 4 mps 753 mmHg 46%
13:00 +37°C° 0 mm 4 mps 752 mmHg 45%
14:00 +37°C° 0 mm 3 mps 752 mmHg 44%
15:00 +36°C° 0 mm 4 mps 751 mmHg 48%
16:00 +36°C° 0 mm 4 mps 751 mmHg 53%
17:00 +35°C° 0 mm 5 mps 751 mmHg 57%
18:00 +34°C° 0 mm 5 mps 752 mmHg 60%
19:00 +33°C° 0 mm 5 mps 752 mmHg 63%
20:00 +32°C° 0 mm 5 mps 753 mmHg 67%
21:00 +32°C° 0.7 mm 5 mps 753 mmHg 69%
22:00 +32°C° 0.7 mm 5 mps 753 mmHg 71%
23:00 +30°C° 0.7 mm 5 mps 753 mmHg 73%

17 August, Monday

Time Temperature Precipitation Wind Pressure Humidity
00:00 +30°C° 0.8 mm 5 mps 753 mmHg 73%
01:00 +30°C° 0.8 mm 5 mps 753 mmHg 74%
02:00 +30°C° 0.8 mm 5 mps 752 mmHg 74%
03:00 +30°C° 0.5 mm 4 mps 752 mmHg 75%
04:00 +30°C° 0.5 mm 3 mps 752 mmHg 75%
05:00 +29°C° 0.5 mm 2 mps 753 mmHg 76%
06:00 +30°C° 0.1 mm 3 mps 753 mmHg 72%
07:00 +31°C° 0.1 mm 3 mps 753 mmHg 68%
08:00 +33°C° 0.1 mm 4 mps 754 mmHg 64%
09:00 +34°C° 0 mm 4 mps 754 mmHg 59%
10:00 +35°C° 0 mm 4 mps 754 mmHg 55%
11:00 +36°C° 0 mm 3 mps 754 mmHg 50%
12:00 +37°C° 0 mm 4 mps 753 mmHg 48%
13:00 +37°C° 0 mm 4 mps 752 mmHg 47%
14:00 +38°C° 0 mm 4 mps 752 mmHg 46%
15:00 +36°C° 0.2 mm 4 mps 752 mmHg 51%
16:00 +35°C° 0.2 mm 4 mps 751 mmHg 56%
17:00 +34°C° 0.2 mm 4 mps 751 mmHg 62%
18:00 +33°C° 0.2 mm 4 mps 752 mmHg 65%
19:00 +32°C° 0.2 mm 5 mps 752 mmHg 69%
20:00 +32°C° 0.2 mm 5 mps 753 mmHg 72%
21:00 +30°C° 0.2 mm 5 mps 753 mmHg 74%
22:00 +30°C° 0.2 mm 5 mps 753 mmHg 76%
23:00 +29°C° 0.2 mm 5 mps 753 mmHg 77%
Show more